TimeCST,TemperatureF,Dew PointF,Humidity,Sea Level PressureIn,VisibilityMPH,Wind Direction,Wind SpeedMPH,Gust SpeedMPH,PrecipitationIn,Events,Conditions,WindDirDegrees,DateUTC
12:52 AM,39.9,28.9,65,30.01,-9999.0,SSW,8.1,-,N/A,,Unknown,200,2013-01-19 06:52:00
1:52 AM,39.0,28.9,67,30.01,-9999.0,South,5.8,-,N/A,,Unknown,180,2013-01-19 07:52:00
2:52 AM,37.0,28.9,73,30.00,-9999.0,SSW,6.9,-,N/A,,Unknown,200,2013-01-19 08:52:00
3:52 AM,37.0,28.9,73,29.98,-9999.0,SSW,8.1,-,N/A,,Unknown,200,2013-01-19 09:52:00
4:52 AM,37.0,28.9,73,29.97,-9999.0,SSW,9.2,-,N/A,,Unknown,200,2013-01-19 10:52:00
5:52 AM,37.9,28.9,70,29.97,-9999.0,SSW,8.1,-,N/A,,Unknown,210,2013-01-19 11:52:00
6:52 AM,34.0,28.0,79,29.98,-9999.0,South,5.8,-,N/A,,Unknown,190,2013-01-19 12:52:00
7:52 AM,37.9,28.9,70,29.97,-9999.0,SSW,5.8,-,N/A,,Unknown,210,2013-01-19 13:52:00
8:52 AM,43.0,30.9,62,29.99,-9999.0,SW,10.4,-,N/A,,Unknown,230,2013-01-19 14:52:00
9:52 AM,46.9,30.9,54,29.98,-9999.0,SW,10.4,19.6,N/A,,Unknown,230,2013-01-19 15:52:00
10:52 AM,50.0,30.9,48,30.02,-9999.0,WSW,10.4,18.4,N/A,,Unknown,250,2013-01-19 16:52:00
11:52 AM,52.0,30.9,45,29.99,-9999.0,WSW,8.1,17.3,N/A,,Unknown,240,2013-01-19 17:52:00
12:52 PM,55.0,30.0,38,29.97,-9999.0,WSW,8.1,17.3,N/A,,Unknown,240,2013-01-19 18:52:00
1:52 PM,57.9,28.9,33,29.96,-9999.0,West,9.2,-,N/A,,Unknown,280,2013-01-19 19:52:00
2:52 PM,60.1,27.0,28,29.97,-9999.0,West,11.5,18.4,N/A,,Unknown,260,2013-01-19 20:52:00
3:52 PM,59.0,27.0,29,29.99,-9999.0,West,11.5,18.4,N/A,,Unknown,280,2013-01-19 21:52:00
4:52 PM,55.9,27.0,33,30.03,-9999.0,WNW,10.4,19.6,N/A,,Unknown,300,2013-01-19 22:52:00
5:52 PM,52.0,27.0,38,30.08,-9999.0,WNW,9.2,-,N/A,,Unknown,300,2013-01-19 23:52:00
6:52 PM,48.0,27.0,44,30.13,-9999.0,NW,6.9,-,N/A,,Unknown,320,2013-01-20 00:52:00
7:52 PM,46.0,28.0,50,30.17,-9999.0,NW,5.8,-,N/A,,Unknown,310,2013-01-20 01:52:00
8:52 PM,44.1,30.0,58,30.19,-9999.0,NW,6.9,-,N/A,,Unknown,320,2013-01-20 02:52:00
9:52 PM,42.1,28.9,60,30.22,-9999.0,NW,6.9,-,N/A,,Unknown,320,2013-01-20 03:52:00
10:52 PM,39.9,28.9,65,30.25,-9999.0,NNW,8.1,16.1,N/A,,Unknown,340,2013-01-20 04:52:00
11:52 PM,36.0,18.0,48,30.28,-9999.0,NW,8.1,-,N/A,,Unknown,310,2013-01-20 05:52:00